CW2971 Weather Reports


Display with metric or nautical units.
time (UTC)temp
F
wind
direction
speed
MPH
gust
MPH
rain 1hr
in
rain 24hr
in
rain mn
in
humidity
%
barometer
mb
20240620021535 71 0 0.0 0.0 0.00 0.00 0.00 90 1026.1
20240620020012 72 0 0.0 1.0 0.00 0.00 0.00 90 1026.1
20240620014528 72 0 0.0 0.0 0.00 0.00 0.00 89 1026.0
20240620013012 73 0 0.0 0.0 0.00 0.00 0.00 88 1026.1
20240620011513 74 0 0.0 0.0 0.00 0.00 0.00 86 1025.9
20240620010023 74 0 0.0 1.0 0.00 0.00 0.00 84 1025.9
20240620004511 75 0 0.0 1.0 0.00 0.00 0.00 81 1025.8
20240620003015 76 0 0.0 2.0 0.00 0.00 0.00 78 1025.9
20240620001517 78 0 0.0 2.0 0.00 0.00 0.00 74 1025.8
20240620000014 80 81 0.0 2.0 0.00 0.00 0.00 69 1025.7
20240619234523 81 0 1.0 5.0 0.00 0.00 0.00 66 1025.7
20240619233030 83 99 0.0 2.0 0.00 0.00 0.00 63 1025.7
20240619231513 83 150 1.0 5.0 0.00 0.00 0.00 63 1025.7
20240619230010 83 298 1.0 6.0 0.00 0.00 0.00 63 1025.6
20240619224534 83 104 2.0 8.0 0.00 0.00 0.00 63 1025.6
20240619223014 83 207 3.0 8.0 0.00 0.00 0.00 62 1025.6
20240619221516 84 124 1.0 4.0 0.00 0.00 0.00 62 1025.4
20240619220012 84 69 0.0 5.0 0.00 0.00 0.00 62 1025.4
20240619214513 84 113 2.0 9.0 0.00 0.00 0.00 62 1025.4
20240619213012 85 88 1.0 5.0 0.00 0.00 0.00 61 1025.6
20240619211516 85 252 1.0 7.0 0.00 0.00 0.00 61 1025.8
20240619210014 85 103 1.0 6.0 0.00 0.00 0.00 62 1025.9
20240619204511 85 135 2.0 8.0 0.00 0.00 0.00 61 1025.9
20240619203013 85 101 2.0 5.0 0.00 0.00 0.00 59 1025.9
20240619201513 85 139 0.0 4.0 0.00 0.00 0.00 59 1026.1
20240619200011 85 92 1.0 11.0 0.00 0.00 0.00 60 1026.1
20240619194514 85 107 1.0 4.0 0.00 0.00 0.00 60 1026.1
20240619193015 85 103 2.0 4.0 0.00 0.00 0.00 60 1026.1
20240619191517 85 103 0.0 4.0 0.00 0.00 0.00 59 1026.2
20240619190015 86 85 2.0 9.0 0.00 0.00 0.00 58 1026.4
20240619184513 87 341 1.0 2.0 0.00 0.00 0.00 57 1026.3
20240619183015 86 79 2.0 6.0 0.00 0.00 0.00 60 1026.3
20240619181528 85 95 2.0 8.0 0.00 0.00 0.00 59 1026.2
20240619180019 85 96 1.0 6.0 0.00 0.00 0.00 60 1026.2
20240619174514 86 219 2.0 6.0 0.00 0.00 0.00 59 1026.3
20240619173027 85 98 2.0 5.0 0.00 0.00 0.00 58 1026.5
20240619171520 86 89 1.0 8.0 0.00 0.00 0.00 59 1026.6
20240619170025 86 133 2.0 6.0 0.00 0.00 0.00 61 1026.6
20240619164515 85 92 1.0 6.0 0.00 0.00 0.00 61 1026.5
20240619163019 85 93 2.0 6.0 0.00 0.00 0.00 62 1026.5
20240619161513 85 31 0.0 4.0 0.00 0.00 0.00 63 1026.5
20240619160013 85 147 1.0 6.0 0.00 0.00 0.00 63 1026.8
20240619154513 86 111 1.0 5.0 0.00 0.00 0.00 62 1026.8
20240619153024 85 314 2.0 6.0 0.00 0.00 0.00 63 1026.6
20240619151515 85 66 2.0 5.0 0.00 0.00 0.00 62 1026.6
20240619150012 84 198 1.0 6.0 0.00 0.00 0.00 64 1026.6
20240619144512 84 92 1.0 5.0 0.00 0.00 0.00 64 1026.7
20240619143014 83 103 1.0 5.0 0.00 0.00 0.00 67 1026.7
20240619141514 82 160 2.0 6.0 0.00 0.00 0.00 70 1026.8
20240619140018 82 0 1.0 5.0 0.00 0.00 0.00 69 1026.7
20240619134520 81 259 1.0 7.0 0.00 0.00 0.00 71 1026.6
20240619133011 80 148 2.0 4.0 0.00 0.00 0.00 73 1026.5
20240619131511 80 321 2.0 5.0 0.00 0.00 0.00 75 1026.5
20240619130014 79 105 2.0 6.0 0.00 0.00 0.00 79 1026.4
20240619124513 78 293 0.0 6.0 0.00 0.00 0.00 83 1026.3
20240619123012 77 323 0.0 2.0 0.00 0.00 0.00 88 1026.2
20240619121518 74 244 0.0 3.0 0.00 0.00 0.00 98 1026.0
20240619120011 71 0 0.0 1.0 0.00 0.00 0.00 100 1025.9
20240619114513 70 0 0.0 0.0 0.00 0.00 0.00 100 1025.9
20240619113021 69 0 0.0 0.0 0.00 0.00 0.00 100 1025.9
20240619111513 68 0 0.0 0.0 0.00 0.00 0.00 100 1025.9
20240619110016 67 0 0.0 0.0 0.00 0.00 0.00 100 1025.8
20240619104526 66 0 0.0 0.0 0.00 0.00 0.00 100 1025.7
20240619103030 66 0 0.0 0.0 0.00 0.00 0.00 99 1025.6
20240619101514 65 0 0.0 0.0 0.00 0.00 0.00 99 1025.5
20240619100013 65 0 0.0 0.0 0.00 0.00 0.00 99 1025.3
20240619094512 65 0 0.0 0.0 0.00 0.00 0.00 99 1025.2
20240619093015 65 0 0.0 0.0 0.00 0.00 0.00 99 1025.2
20240619091514 65 0 0.0 0.0 0.00 0.00 0.00 99 1024.9
20240619090014 65 0 0.0 0.0 0.00 0.00 0.00 99 1024.6
20240619084514 65 0 0.0 0.0 0.00 0.00 0.00 99 1024.6
20240619083015 66 0 0.0 0.0 0.00 0.00 0.00 99 1024.5
20240619081511 65 0 0.0 0.0 0.00 0.00 0.00 98 1024.2
20240619080010 66 0 0.0 0.0 0.00 0.00 0.00 99 1024.3
20240619074514 66 0 0.0 1.0 0.00 0.00 0.00 99 1024.3
20240619073011 66 0 0.0 0.0 0.00 0.00 0.00 99 1024.1
20240619071520 66 0 0.0 0.0 0.00 0.00 0.00 98 1024.1
20240619070013 66 0 0.0 0.0 0.00 0.00 0.00 98 1024.1
20240619064513 66 0 0.0 0.0 0.00 0.00 0.00 98 1023.9
20240619063010 67 0 0.0 0.0 0.00 0.00 0.00 98 1024.1
20240619061512 67 0 0.0 1.0 0.00 0.00 0.00 98 1024.1
20240619060023 67 0 0.0 0.0 0.00 0.00 0.00 98 1024.0
20240619054532 67 0 0.0 0.0 0.00 0.00 0.00 98 1024.1
20240619053016 67 0 0.0 0.0 0.00 0.00 0.00 97 1024.0
20240619051516 67 0 0.0 0.0 0.00 0.00 0.00 96 1024.2
20240619050011 68 0 0.0 0.0 0.00 0.00 0.00 97 1024.2
20240619044512 68 0 0.0 0.0 0.00 0.00 0.00 96 1024.0
20240619043031 68 0 0.0 0.0 0.00 0.00 0.00 95 1024.1
20240619041527 68 0 0.0 0.0 0.00 0.00 0.00 95 1024.2
20240619040025 69 0 0.0 0.0 0.00 0.00 0.00 94 1024.1
20240619034511 69 123 0.0 1.0 0.00 0.00 0.00 94 1024.2
20240619033012 69 0 0.0 1.0 0.00 0.00 0.00 93 1024.2
20240619031512 70 0 0.0 0.0 0.00 0.00 0.00 92 1024.4
20240619030015 70 0 0.0 0.0 0.00 0.00 0.00 91 1024.3
20240619024522 70 0 0.0 0.0 0.00 0.00 0.00 90 1024.4
20240619023014 71 0 0.0 1.0 0.00 0.00 0.00 89 1024.3